Hourly Data Report for July 12, 2004

SHERBROOKE A
QUEBEC

45°26'00.000" N
71°41'00.000" W
241.40 m
7028124
71610
YSC

Download Data

Hourly Data (July 2004)
Hourly Data Report for July 12, 2004
TIME
LST
Temp Definition
°C
Dew Point Definition
°C
Rel Hum Definition
%
Precip. Amount Definition
mm

Wind Dir Definition
10's deg

Wind Spd Definition
km/h
Visibility Definition
km
Stn Press Definition
kPa
Hmdx Definition


Wind Chill Definition


Weather Definition


00:00 13.3 12.1 92     0 15.0 99.12      
01:00 12.4 11.4 94   11 4 15.0 99.13      
02:00 12.8 11.7 93   10 7 15.0 99.13      
03:00 12.5 11.4 93   9 9 15.0 99.09      
04:00 12.5 11.3 92   7 6 15.0 99.07      
05:00 12.9 11.8 93   9 6 15.0 99.08      
06:00 14.1 12.7 91   7 4 15.0 99.09      
07:00 15.8 13.3 85     0 24.1 99.10     Mostly Cloudy
08:00 17.3 14.5 84   11 4 24.1 99.07     Rain Showers
09:00 20.0 15.8 77   8 4 24.1 99.06     Cloudy
10:00 22.0 16.5 71     0 24.1 99.02 27   Mostly Cloudy
11:00 23.8 17.5 68   6 4 24.1 98.95 29   Mostly Cloudy
12:00 24.8 16.5 60   10 7 24.1 98.90 30   Mostly Cloudy
13:00 26.4 16.7 55   18 11 24.1 98.83 31   Mostly Cloudy
14:00 27.0 16.5 53   19 4 24.1 98.75 32   Mostly Cloudy
15:00 25.5 16.5 58   17 6 24.1 98.69 30   Mostly Cloudy
16:00 22.1 16.2 69   15 11 24.1 98.69 27   Mostly Cloudy
17:00 20.8 17.0 79   11 13 15.0 98.71 26    
18:00 20.4 17.5 83   13 11 15.0 98.71 26    
19:00 20.0 17.6 86   14 6 15.0 98.73 26    
20:00 18.2 17.1 93   14 7 3.5 98.74     Moderate Rain
21:00 18.3 17.4 94   13 6 4.8 98.74     Moderate Rain
22:00 18.0 17.0 94   14 6 6.4 98.70     Rain
23:00 17.8 16.8 94   14 4 8.0 98.63      

Notes on Data Quality.

Legend

  • E = Estimated
  • M = Missing
  • NA = Not Available*
  • [empty] = Indicates an unobserved value
Date modified: